This is the latest recevied weather packets stored in our database for station/object E23JWE-1. If no packets are shown the sender has not sent any weather packets the latest 10 day(s).
| Time | Temp. | Humidity | Pressure | Rain* | Wind** | Luminosity | Snow |
|---|---|---|---|---|---|---|---|
| 1777681436 | 31.11° C | 99% | 1009 hPa | - | - | 13 W/m² | - |
| 1777679610 | 31.11° C | 97% | 1008 hPa | - | - | 6 W/m² | - |
| 1777677785 | 31.11° C | 98% | 1008 hPa | - | - | 1 W/m² | - |
| 1777675959 | 31.11° C | 98% | 1008 hPa | - | - | 0 W/m² | - |
| 1777674134 | 31.11° C | 95% | 1008 hPa | - | - | 0 W/m² | - |
| 1777672308 | 31.11° C | 96% | 1007 hPa | - | - | 0 W/m² | - |
| 1777670482 | 30.56° C | 98% | 1007 hPa | - | - | 0 W/m² | - |
| 1777668657 | 30.56° C | 97% | 1007 hPa | - | - | 0 W/m² | - |
| 1777666831 | 29.44° C | 99% | 1008 hPa | - | - | 0 W/m² | - |
| 1777665006 | 29.44° C | 99% | 1008 hPa | - | - | 0 W/m² | - |
| 1777663180 | 31.11° C | 95% | 1009 hPa | - | - | 0 W/m² | - |
| 1777661353 | 30.56° C | 99% | 1008 hPa | - | - | 0 W/m² | - |
| 1777659620 | 31.11° C | 97% | 1009 hPa | - | - | 0 W/m² | - |
| 1777657794 | 32.22° C | 91% | 1009 hPa | - | - | 0 W/m² | - |
| 1777655968 | 32.22° C | 92% | 1009 hPa | - | - | 0 W/m² | - |
| 1777654143 | 32.22° C | 90% | 1009 hPa | - | - | 0 W/m² | - |
| 1777652317 | 31.67° C | 99% | 1010 hPa | - | - | 0 W/m² | - |
| 1777650492 | 32.78° C | 92% | 1010 hPa | - | - | 0 W/m² | - |
| 1777648666 | 32.78° C | 90% | 1010 hPa | - | - | 0 W/m² | - |
| 1777646841 | 32.78° C | 89% | 1009 hPa | - | - | 0 W/m² | - |
| 1777645015 | 32.78° C | 89% | 1009 hPa | - | - | 0 W/m² | - |
| 1777643190 | 32.22° C | 88% | 1008 hPa | - | - | 0 W/m² | - |
| 1777641364 | 32.22° C | 88% | 1008 hPa | - | - | 0 W/m² | - |
| 1777639538 | 31.67° C | 88% | 1007 hPa | - | - | 0 W/m² | - |
| 1777637713 | 31.67° C | 85% | 1007 hPa | - | - | 0 W/m² | - |
* Rain since midnight (hover to see other rain measurements)
** Current wind speed in m/s (hover to see current wind gust speed)